When you browse on this site, cookies collect data to enhance your experience and personalize the content and advertising you see.
Visit our Privacy Policy to learn more. By continuing to use the site, you agree to this use of cookies and data.
  • In France
  • List of Countries
  • For 7 days
  • Water Temperature
  • Satellite Maps
  • Weather Map
  • Weather Widgets
  • user-avatar
    Login

    Hourly Weather Tirana

    Today, 18 November, Sunday

    Time Temperature Precipitation Wind Pressure Humidity
    00:00 +7°C° 0 mm 6 mps 756 mmHg 63%
    01:00 +8°C° 0 mm 5 mps 755 mmHg 63%
    02:00 +8°C° 0 mm 5 mps 755 mmHg 63%
    03:00 +8°C° 0 mm 5 mps 755 mmHg 63%
    04:00 +8°C° 0 mm 6 mps 754 mmHg 64%
    05:00 +8°C° 0.1 mm 5 mps 754 mmHg 65%
    06:00 +8°C° 0.1 mm 5 mps 754 mmHg 65%
    07:00 +8°C° 0 mm 5 mps 754 mmHg 66%
    08:00 +9°C° 0.4 mm 6 mps 753 mmHg 65%
    09:00 +9°C° 0.4 mm 6 mps 753 mmHg 64%
    10:00 +10°C° 0.4 mm 6 mps 753 mmHg 64%
    11:00 +10°C° 0.8 mm 5 mps 752 mmHg 66%
    12:00 +9°C° 0.8 mm 5 mps 752 mmHg 68%
    13:00 +9°C° 0.8 mm 5 mps 751 mmHg 71%
    14:00 +9°C° 0.8 mm 5 mps 751 mmHg 73%
    15:00 +10°C° 0.8 mm 4 mps 751 mmHg 75%
    16:00 +8°C° 0.8 mm 4 mps 750 mmHg 78%
    17:00 +8°C° 0.2 mm 4 mps 750 mmHg 78%
    18:00 +8°C° 0.2 mm 4 mps 750 mmHg 79%
    19:00 +8°C° 0.2 mm 4 mps 749 mmHg 79%
    20:00 +9°C° 0 mm 3 mps 749 mmHg 79%
    21:00 +9°C° 0 mm 3 mps 750 mmHg 79%
    22:00 +9°C° 0 mm 3 mps 750 mmHg 78%
    23:00 +9°C° 0 mm 2 mps 750 mmHg 79%

    Tomorrow, 19 November, Monday

    Time Temperature Precipitation Wind Pressure Humidity
    00:00 +8°C° 0 mm 2 mps 750 mmHg 79%
    01:00 +8°C° 0 mm 2 mps 750 mmHg 79%
    02:00 +8°C° 0 mm 2 mps 750 mmHg 80%
    03:00 +7°C° 0 mm 2 mps 750 mmHg 80%
    04:00 +7°C° 0 mm 2 mps 750 mmHg 80%
    05:00 +7°C° 0 mm 2 mps 750 mmHg 80%
    06:00 +7°C° 0 mm 2 mps 750 mmHg 79%
    07:00 +7°C° 0 mm 3 mps 751 mmHg 79%
    08:00 +9°C° 0 mm 3 mps 751 mmHg 72%
    09:00 +11°C° 0 mm 3 mps 751 mmHg 66%
    10:00 +13°C° 0 mm 3 mps 751 mmHg 59%
    11:00 +13°C° 0 mm 3 mps 751 mmHg 57%
    12:00 +14°C° 0 mm 3 mps 751 mmHg 54%
    13:00 +16°C° 0 mm 3 mps 751 mmHg 52%
    14:00 +14°C° 0.1 mm 3 mps 751 mmHg 56%
    15:00 +13°C° 0.1 mm 4 mps 751 mmHg 60%
    16:00 +13°C° 0.1 mm 4 mps 751 mmHg 64%
    17:00 +12°C° 0.2 mm 5 mps 751 mmHg 68%
    18:00 +10°C° 0.2 mm 6 mps 751 mmHg 71%
    19:00 +10°C° 0.2 mm 7 mps 751 mmHg 75%
    20:00 +10°C° 1.5 mm 7 mps 750 mmHg 76%
    21:00 +10°C° 1.5 mm 7 mps 750 mmHg 78%
    22:00 +10°C° 1.5 mm 7 mps 750 mmHg 79%
    23:00 +10°C° 3 mm 8 mps 750 mmHg 80%

    Day after tomorrow, 20 November, Tuesday

    Time Temperature Precipitation Wind Pressure Humidity
    00:00 +10°C° 3 mm 8 mps 750 mmHg 80%
    01:00 +10°C° 3 mm 8 mps 750 mmHg 81%
    02:00 +10°C° 1.9 mm 8 mps 750 mmHg 82%
    03:00 +10°C° 1.9 mm 9 mps 750 mmHg 82%
    04:00 +11°C° 1.9 mm 9 mps 750 mmHg 82%
    05:00 +11°C° 2.1 mm 9 mps 750 mmHg 82%
    06:00 +11°C° 2.1 mm 9 mps 750 mmHg 82%
    07:00 +11°C° 2.1 mm 10 mps 750 mmHg 81%
    08:00 +12°C° 0.7 mm 10 mps 750 mmHg 79%
    09:00 +13°C° 0.7 mm 10 mps 750 mmHg 77%
    10:00 +14°C° 0.7 mm 10 mps 750 mmHg 75%
    11:00 +15°C° 0.8 mm 9 mps 750 mmHg 75%
    12:00 +16°C° 0.8 mm 9 mps 749 mmHg 75%
    13:00 +16°C° 0.8 mm 9 mps 749 mmHg 75%
    14:00 +15°C° 1 mm 8 mps 749 mmHg 77%
    15:00 +15°C° 1 mm 8 mps 749 mmHg 78%
    16:00 +13°C° 1 mm 8 mps 749 mmHg 80%
    17:00 +13°C° 0.7 mm 8 mps 749 mmHg 81%
    18:00 +13°C° 0.7 mm 8 mps 749 mmHg 82%
    19:00 +14°C° 0.7 mm 7 mps 749 mmHg 82%
    20:00 +14°C° 0.7 mm 7 mps 749 mmHg 83%
    21:00 +14°C° 0.7 mm 7 mps 750 mmHg 83%
    22:00 +14°C° 0.7 mm 6 mps 750 mmHg 83%
    23:00 +14°C° 1.6 mm 5 mps 749 mmHg 83%

    21 November, Wednesday

    Time Temperature Precipitation Wind Pressure Humidity
    00:00 +13°C° 1.6 mm 5 mps 749 mmHg 84%
    01:00 +13°C° 1.6 mm 4 mps 749 mmHg 84%
    02:00 +13°C° 3.4 mm 4 mps 748 mmHg 85%
    03:00 +13°C° 3.4 mm 4 mps 748 mmHg 86%
    04:00 +13°C° 3.4 mm 4 mps 748 mmHg 86%
    05:00 +13°C° 1.8 mm 4 mps 748 mmHg 87%
    06:00 +13°C° 1.8 mm 4 mps 748 mmHg 87%
    07:00 +13°C° 1.8 mm 4 mps 748 mmHg 87%
    08:00 +13°C° 1.4 mm 4 mps 749 mmHg 87%
    09:00 +13°C° 1.4 mm 4 mps 749 mmHg 88%
    10:00 +13°C° 1.4 mm 4 mps 750 mmHg 89%
    11:00 +13°C° 1 mm 3 mps 750 mmHg 90%
    12:00 +14°C° 1 mm 2 mps 750 mmHg 91%
    13:00 +14°C° 1 mm 1 mps 750 mmHg 93%
    14:00 +14°C° 0.6 mm 2 mps 750 mmHg 93%
    15:00 +14°C° 0.6 mm 2 mps 751 mmHg 93%
    16:00 +13°C° 0.6 mm 3 mps 751 mmHg 93%
    17:00 +13°C° 0.2 mm 3 mps 751 mmHg 93%
    18:00 +13°C° 0.2 mm 3 mps 752 mmHg 92%
    19:00 +12°C° 0.2 mm 3 mps 752 mmHg 92%
    20:00 +12°C° 0.1 mm 3 mps 753 mmHg 91%
    21:00 +12°C° 0.1 mm 3 mps 753 mmHg 90%
    22:00 +12°C° 0.1 mm 3 mps 753 mmHg 90%
    23:00 +12°C° 0.1 mm 3 mps 753 mmHg 90%

    22 November, Thursday

    Time Temperature Precipitation Wind Pressure Humidity
    00:00 +12°C° 0.1 mm 3 mps 753 mmHg 89%
    01:00 +12°C° 0.1 mm 3 mps 753 mmHg 89%
    02:00 +13°C° 0.2 mm 2 mps 753 mmHg 89%
    03:00 +13°C° 0.2 mm 2 mps 754 mmHg 89%
    04:00 +13°C° 0.2 mm 2 mps 754 mmHg 89%
    05:00 +13°C° 0.2 mm 2 mps 754 mmHg 89%
    06:00 +13°C° 0.2 mm 2 mps 754 mmHg 89%
    07:00 +13°C° 0.2 mm 2 mps 754 mmHg 89%
    08:00 +14°C° 0.2 mm 2 mps 755 mmHg 83%
    09:00 +16°C° 0.2 mm 2 mps 755 mmHg 78%
    10:00 +17°C° 0.2 mm 2 mps 755 mmHg 72%
    11:00 +18°C° 0.2 mm 2 mps 755 mmHg 70%
    12:00 +18°C° 0.2 mm 2 mps 755 mmHg 67%
    13:00 +18°C° 0.2 mm 2 mps 755 mmHg 65%
    14:00 +18°C° 0.2 mm 2 mps 755 mmHg 69%
    15:00 +18°C° 0.2 mm 1 mps 755 mmHg 74%
    16:00 +16°C° 0.2 mm 1 mps 755 mmHg 78%
    17:00 +15°C° 0 mm 1 mps 756 mmHg 81%
    18:00 +15°C° 0 mm 1 mps 756 mmHg 84%
    19:00 +14°C° 0 mm 1 mps 757 mmHg 87%
    20:00 +14°C° 0 mm 1 mps 757 mmHg 87%
    21:00 +13°C° 0 mm 1 mps 757 mmHg 87%
    22:00 +13°C° 0 mm 1 mps 758 mmHg 87%
    23:00 +13°C° 0.1 mm 1 mps 758 mmHg 86%

    23 November, Friday

    Time Temperature Precipitation Wind Pressure Humidity
    00:00 +13°C° 0.1 mm 1 mps 758 mmHg 86%
    01:00 +13°C° 0.1 mm 1 mps 758 mmHg 85%
    02:00 +12°C° 0 mm 1 mps 758 mmHg 84%
    03:00 +12°C° 0 mm 1 mps 759 mmHg 83%
    04:00 +12°C° 0 mm 1 mps 759 mmHg 82%
    05:00 +12°C° 0 mm 1 mps 759 mmHg 82%
    06:00 +12°C° 0 mm 1 mps 759 mmHg 81%
    07:00 +12°C° 0 mm 1 mps 760 mmHg 81%
    08:00 +13°C° 0 mm 1 mps 760 mmHg 74%
    09:00 +15°C° 0 mm 1 mps 760 mmHg 68%
    10:00 +18°C° 0 mm 1 mps 761 mmHg 61%
    11:00 +19°C° 0 mm 1 mps 760 mmHg 58%
    12:00 +18°C° 0 mm 2 mps 760 mmHg 56%
    13:00 +19°C° 0 mm 2 mps 760 mmHg 53%
    14:00 +18°C° 0 mm 2 mps 760 mmHg 57%
    15:00 +17°C° 0 mm 2 mps 760 mmHg 62%
    16:00 +16°C° 0 mm 2 mps 760 mmHg 66%
    17:00 +15°C° 0 mm 2 mps 760 mmHg 68%
    18:00 +14°C° 0 mm 2 mps 760 mmHg 71%
    19:00 +14°C° 0 mm 2 mps 761 mmHg 73%
    20:00 +13°C° 0 mm 2 mps 761 mmHg 74%
    21:00 +13°C° 0 mm 2 mps 761 mmHg 75%
    22:00 +13°C° 0 mm 2 mps 761 mmHg 76%
    23:00 +12°C° 0 mm 2 mps 761 mmHg 76%
    Show more